カタログに戻る

STARLINK-3292

運用中通信VLEO
NORAD 50174·PAYLOAD·🇺🇸 United States

打ち上げ Dec 18, 2021 から Vandenberg Space Force Base

Loading…

次のパス (今後24時間)

TLE

最新Source: CelesTrak SupGP

元期: Sep 14, 2026, 21:57 UTC

1 50174C 21125U   26257.91506944  .00013242  00000+0  39130-3 0  2575
2 50174  53.1577  99.6652 0001216  77.5254  74.2930 15.34379284    16

AllMySatでSTARLINK-3292をリアルタイム追跡

Download on the App Store